This is the latest recevied weather packets stored in our database for station/object N3LF. If no packets are shown the sender has not sent any weather packets the latest 10 day(s).
| Time | Temp. | Humidity | Pressure | Rain* | Wind** | Luminosity | Snow |
|---|---|---|---|---|---|---|---|
| 1777941818 | 22.22° C | 51% | 1011.7 hPa | 0 mm | - | 2 W/m² | - |
| 1777941515 | 22.78° C | 48% | 1011.5 hPa | 0 mm | - | 3 W/m² | - |
| 1777941212 | 22.78° C | 49% | 1011.5 hPa | 0 mm | - | 5 W/m² | - |
| 1777940908 | 22.78° C | 48% | 1011.5 hPa | 0 mm | - | 8 W/m² | - |
| 1777940605 | 23.33° C | 49% | 1011.8 hPa | 0 mm | - | 11 W/m² | - |
| 1777940304 | 23.89° C | 46% | 1011.6 hPa | 0 mm | - | 14 W/m² | - |
| 1777940000 | 23.89° C | 47% | 1011.5 hPa | 0 mm | - | 17 W/m² | - |
| 1777939698 | 24.44° C | 45% | 1011.7 hPa | 0 mm | - | 21 W/m² | - |
| 1777939395 | 25° C | 42% | 1011.8 hPa | 0 mm | - | 26 W/m² | - |
| 1777939092 | 24.44° C | 44% | 1011.9 hPa | 0 mm | - | 31 W/m² | - |
| 1777938789 | 25° C | 45% | 1011.9 hPa | 0 mm | - | 37 W/m² | - |
| 1777938485 | 25° C | 44% | 1011.8 hPa | 0 mm | - | 34 W/m² | - |
| 1777938183 | 25° C | 45% | 1012 hPa | 0 mm | - | 37 W/m² | - |
| 1777937879 | 25.56° C | 44% | 1012 hPa | 0 mm | - | 55 W/m² | - |
| 1777937575 | 25.56° C | 42% | 1011.9 hPa | 0 mm | - | 63 W/m² | - |
| 1777937272 | 25.56° C | 42% | 1012.2 hPa | 0 mm | - | 72 W/m² | - |
| 1777936969 | 25.56° C | 42% | 1012.2 hPa | 0 mm | - | 80 W/m² | - |
| 1777936666 | 25.56° C | 45% | 1012.1 hPa | 0 mm | - | 91 W/m² | - |
| 1777936362 | 25.56° C | 41% | 1012.2 hPa | 0 mm | - | 97 W/m² | - |
| 1777936058 | 25.56° C | 43% | 1012.2 hPa | 0 mm | - | 51 W/m² | - |
| 1777935757 | 26.67° C | 42% | 1012.3 hPa | 0 mm | - | 77 W/m² | - |
| 1777935456 | 27.22° C | 42% | 1012.1 hPa | 0 mm | - | 149 W/m² | - |
| 1777935151 | 27.22° C | 40% | 1012.1 hPa | 0 mm | - | 154 W/m² | - |
| 1777934849 | 27.22° C | 41% | 1012.2 hPa | 0 mm | - | 170 W/m² | - |
| 1777934546 | 26.67° C | 40% | 1012.2 hPa | 0 mm | - | 186 W/m² | - |
* Rain latest hour (hover to see other rain measurements)
** Current wind speed in m/s (hover to see current wind gust speed)